[[{"header":{"parameterUnit":"m.s-1","parameterCategory":1,"la1":30.2991,"la2":30.254,"lo1":-89.0895,"lo2":-89.0444,"dy":0.0017,"dx":0.0017,"nx":28,"ny":28,"refTime":"2023-08-18T21:00:00:Z","depth":0,"parameterNumber":2,"parameterNumberName":"U-component_of_WINDS"},"data":[0,0,0,0,0,0,0,0,0,0,0,0,0,0,0,0,0,0,0,0,0,0,0,0,0,0,0,0,0,0,0,0,0,0,0,0,0,0,0,0,0,0,0,0,0,0,0,0,0,0,0,0,0,0,0,0,0,0,-0.1701,-0.1701,0,-0.1699,-0.1699,-0.1699,-0.1709,-0.171,-0.171,-0.171,-0.1708,-0.1708,-0.1708,0,0,0,0,0,0,0,0,0,0,0,0,0,-0.1715,-0.1714,-0.1701,-0.1701,-0.1701,-0.1699,-0.1699,-0.1699,-0.1709,-0.171,-0.171,-0.171,-0.1708,-0.1708,-0.1708,0,0,0,0,0,0,0,0,0,0,0,0,0,-0.171,-0.1714,-0.1701,-0.1706,-0.1706,-0.1699,-0.1699,-0.1699,-0.1709,-0.171,-0.171,-0.171,-0.1709,-0.1708,-0.1708,-0.1696,0,0,-0.1706,-0.1706,0,0,0,0,0,0,0,0,-0.1711,-0.171,-0.1705,-0.1706,-0.1706,-0.1705,-0.1703,-0.1698,-0.1709,-0.1708,-0.171,-0.1711,-0.1707,-0.1707,-0.1705,-0.1696,-0.1696,-0.1706,-0.1706,-0.1706,-0.1705,0,0,0,0,0,0,0,-0.1711,-0.171,-0.17,-0.1705,-0.1706,-0.1708,-0.1708,-0.1702,-0.1705,-0.1708,-0.1709,-0.1709,-0.1707,-0.1706,-0.1705,-0.1696,-0.1706,-0.1706,-0.1705,-0.1705,-0.1677,-0.1677,0,0,0,0,0,0,-0.171,-0.171,-0.1701,-0.17,-0.1709,-0.1708,-0.1708,-0.1705,-0.1705,-0.1706,-0.1708,-0.1709,-0.1706,-0.1706,-0.1705,-0.1692,-0.1706,-0.1705,-0.1705,-0.1677,-0.1677,-0.1676,0,0,0,0,0,0,-0.1711,-0.1709,-0.1701,-0.1705,-0.1705,-0.1707,-0.1704,-0.1705,-0.1703,-0.1705,-0.1706,-0.1706,-0.1707,-0.1706,-0.1698,-0.1692,-0.1705,-0.1704,-0.1678,-0.1677,-0.1677,-0.1665,0,0,0,0,0,0,-0.1711,-0.171,-0.1705,-0.1705,-0.1704,-0.1693,-0.1704,-0.1704,-0.1702,-0.1703,-0.1703,-0.1704,-0.1707,-0.1699,-0.1698,-0.1692,-0.1704,-0.1679,-0.1678,-0.1677,-0.1666,-0.1664,-0.1662,0,0,0,0,0,-0.1711,-0.1702,-0.1705,-0.1703,-0.1699,-0.1693,-0.1693,-0.1696,-0.1702,-0.1697,-0.1699,-0.1704,-0.1693,-0.1698,-0.1697,-0.169,-0.1679,-0.1678,-0.1677,-0.1667,-0.1664,-0.1662,0,0,0,0,0,0,-0.17,-0.1702,-0.1705,-0.1695,-0.1694,-0.1695,-0.1689,-0.1693,-0.1691,-0.1692,-0.1697,-0.1697,-0.1688,-0.1688,-0.1694,-0.1679,-0.1687,-0.1685,-0.1679,-0.1677,-0.1675,-0.1676,-0.1704,0,0,0,0,0,-0.1697,-0.1692,-0.1694,-0.1685,-0.1684,-0.1687,-0.1684,-0.1687,-0.1686,-0.1686,-0.1687,-0.1686,-0.1682,-0.168,-0.1676,-0.1666,-0.1666,-0.1661,-0.1659,-0.1657,-0.1656,-0.1651,-0.1649,-0.1673,-0.1673,-0.1673,0,0,-0.1689,-0.169,-0.1686,-0.1682,-0.1682,-0.1677,-0.1686,-0.1681,-0.1677,-0.1685,-0.1678,-0.1679,-0.1678,-0.1669,-0.1665,-0.1669,-0.165,-0.1656,-0.1655,-0.1655,-0.165,-0.1648,-0.1646,-0.1672,-0.1672,-0.1673,0,0,-0.1674,-0.1673,-0.1666,-0.1665,-0.1664,-0.1666,-0.1664,-0.1664,-0.1665,-0.1658,-0.1664,-0.166,-0.1654,-0.1653,-0.1652,-0.1636,-0.1641,-0.1635,-0.1625,-0.162,-0.1618,-0.1617,-0.1612,-0.161,-0.1633,-0.1633,-0.1633,0,-0.1665,-0.1658,-0.1661,-0.1656,-0.1654,-0.1661,-0.1654,-0.1653,-0.1651,-0.165,-0.1654,-0.1646,-0.1646,-0.1637,-0.1633,-0.1632,-0.163,-0.1635,-0.1618,-0.1617,-0.1615,-0.161,-0.1608,-0.1633,-0.1633,-0.1633,-0.1633,0,-0.1647,-0.1642,-0.1636,-0.1634,-0.1632,-0.1625,-0.1628,-0.1626,-0.1629,-0.163,-0.1623,-0.1623,-0.162,-0.1618,-0.1621,-0.161,-0.1613,-0.1617,-0.1625,-0.1612,-0.1608,-0.1606,-0.1632,-0.1632,-0.1632,-0.1632,0,0,-0.1624,-0.1624,-0.1622,-0.1622,-0.1621,-0.1618,-0.1612,-0.1609,-0.1606,-0.1605,-0.16,-0.1595,-0.1599,-0.1598,-0.1601,-0.1596,-0.1584,-0.1602,-0.1602,-0.1599,-0.1573,-0.1569,-0.1567,-0.1587,-0.1587,-0.1587,-0.1573,0,-0.1609,-0.1599,-0.1602,-0.1592,-0.1588,-0.1594,-0.1589,-0.1588,-0.159,-0.1586,-0.1588,-0.1584,-0.159,-0.1589,-0.1585,-0.1587,-0.1579,-0.1588,-0.1584,-0.1583,-0.1584,-0.1565,-0.1561,-0.1548,-0.1571,-0.1571,-0.157,0,-0.159,-0.1588,-0.1577,-0.1578,-0.1576,-0.1571,-0.1569,-0.1566,-0.1565,-0.1567,-0.1565,-0.1569,-0.1564,-0.1571,-0.1564,-0.1569,-0.1568,-0.1568,-0.1568,-0.1568,-0.1576,-0.1565,-0.1544,-0.1542,-0.1568,-0.1568,-0.1568,0,-0.1575,-0.157,-0.1563,-0.1562,-0.1562,-0.1559,-0.1559,-0.1559,-0.1557,-0.1555,-0.1554,-0.1551,-0.155,-0.1548,-0.1551,-0.1556,-0.1544,-0.1551,-0.1545,-0.1545,-0.1542,-0.1542,-0.1521,-0.154,-0.154,-0.154,-0.154,0,-0.1559,-0.1552,-0.1556,-0.1552,-0.1545,-0.1549,-0.1542,-0.1542,-0.1542,-0.1538,-0.1544,-0.154,-0.1544,-0.1541,-0.1544,-0.1537,-0.1537,-0.1538,-0.1539,-0.1537,-0.1537,-0.1537,-0.1538,-0.154,-0.154,-0.154,-0.154,0,-0.1541,-0.1544,-0.1537,-0.1538,-0.1538,-0.1532,-0.1533,-0.153,-0.1531,-0.1526,-0.1525,-0.1528,-0.1524,-0.1527,-0.1524,-0.1526,-0.1518,-0.1519,-0.1518,-0.1519,-0.1512,-0.1513,-0.149,-0.1488,-0.1508,-0.1508,-0.1508,0,-0.1531,-0.1526,-0.1526,-0.1524,-0.1524,-0.152,-0.1518,-0.1522,-0.152,-0.1519,-0.1515,-0.1512,-0.151,-0.1504,-0.1506,-0.1503,-0.1506,-0.1498,-0.1505,-0.1505,-0.1506,-0.1507,-0.1506,-0.1496,-0.1496,-0.1496,-0.1496,0,-0.1512,-0.1513,-0.151,-0.1508,-0.1506,-0.1504,-0.1503,-0.1501,-0.1505,-0.1502,-0.1498,-0.1497,-0.1493,-0.149,-0.1488,-0.1489,-0.1493,-0.1493,-0.1492,-0.1491,-0.149,-0.1491,-0.1514,-0.1494,-0.1494,-0.1494,-0.1494,-0.1494,-0.1498,-0.1494,-0.1494,-0.149,-0.149,-0.1489,-0.1485,-0.1486,-0.1484,-0.1481,-0.1483,-0.1479,-0.1479,-0.1477,-0.1477,-0.1474,-0.1477,-0.1474,-0.1474,-0.1473,-0.1473,-0.1491,-0.1473,-0.1473,-0.1473,-0.1473,-0.1473,0,-0.148,-0.148,-0.1477,-0.1475,-0.1472,-0.1476,-0.1475,-0.1473,-0.1469,-0.1469,-0.1466,-0.1463,-0.146,-0.1461,-0.1459,-0.1456,-0.1458,-0.1455,-0.1456,-0.1456,-0.147,-0.1472,-0.1454,-0.1454,-0.1454,-0.1454,-0.1454,-0.1454,-0.147,-0.1464,-0.1465,-0.1459,-0.1459,-0.1455,-0.1454,-0.1453,-0.1453,-0.1448,-0.1446,-0.1447,-0.1447,-0.1445,-0.1442,-0.1443,-0.1442,-0.1439,-0.144,-0.1453,-0.1455,-0.1457,-0.1458,-0.1438,-0.1438,-0.1426,-0.1426,-0.1426]},{"header":{"parameterUnit":"m.s-1","parameterCategory":1,"la1":30.2991,"la2":30.254,"lo1":-89.0895,"lo2":-89.0444,"dy":0.0017,"dx":0.0017,"nx":28,"ny":28,"refTime":"2023-08-18T21:00:00:Z","depth":0,"parameterNumber":3,"parameterNumberName":"V-component_of_WINDS"},"data":[0,0,0,0,0,0,0,0,0,0,0,0,0,0,0,0,0,0,0,0,0,0,0,0,0,0,0,0,0,0,0,0,0,0,0,0,0,0,0,0,0,0,0,0,0,0,0,0,0,0,0,0,0,0,0,0,0,0,3.9192,3.9192,0,3.9144,3.9143,3.9142,3.9053,3.9051,3.9049,3.9048,3.8999,3.9,3.9,0,0,0,0,0,0,0,0,0,0,0,0,0,3.921,3.921,3.9192,3.9192,3.9191,3.9144,3.9143,3.9142,3.9053,3.9051,3.9049,3.9047,3.8999,3.9,3.9,0,0,0,0,0,0,0,0,0,0,0,0,0,3.9186,3.921,3.9192,3.9141,3.9136,3.9144,3.9143,3.9142,3.9053,3.9051,3.9048,3.9046,3.8999,3.9,3.9,3.9055,0,0,3.9002,3.9002,0,0,0,0,0,0,0,0,3.9187,3.9185,3.9149,3.9144,3.9139,3.9101,3.9131,3.9113,3.9054,3.9085,3.9047,3.9044,3.9036,3.9033,3.903,3.9053,3.9051,3.9002,3.9002,3.9002,3.9002,0,0,0,0,0,0,0,3.9189,3.9187,3.9173,3.9148,3.9142,3.9121,3.9114,3.9128,3.9075,3.9082,3.9075,3.9071,3.9032,3.9029,3.9028,3.905,3.9002,3.9002,3.9002,3.9003,3.9116,3.9119,0,0,0,0,0,0,3.9198,3.9189,3.9174,3.9171,3.9157,3.9122,3.9115,3.9116,3.9075,3.9066,3.9073,3.9067,3.903,3.9027,3.9026,3.9086,3.9002,3.9003,3.9003,3.9113,3.9117,3.912,0,0,0,0,0,0,3.9199,3.9198,3.9176,3.9178,3.9174,3.9125,3.9126,3.9116,3.9113,3.9068,3.9059,3.9079,3.9028,3.9025,3.9048,3.9084,3.9003,3.9003,3.911,3.9114,3.9118,3.921,0,0,0,0,0,0,3.92,3.9198,3.9218,3.9179,3.9174,3.92,3.9129,3.9117,3.9114,3.9105,3.9072,3.9063,3.9025,3.9048,3.9049,3.9083,3.9004,3.9107,3.9112,3.9117,3.9203,3.9216,3.9227,0,0,0,0,0,3.9201,3.9246,3.922,3.9219,3.9198,3.9202,3.9199,3.9153,3.9117,3.9137,3.9108,3.9065,3.908,3.9051,3.9051,3.9086,3.9104,3.911,3.9116,3.9198,3.9214,3.9227,0,0,0,0,0,0,3.9291,3.924,3.921,3.9245,3.9228,3.9187,3.921,3.9172,3.9166,3.9158,3.9103,3.9096,3.9126,3.9109,3.9077,3.9137,3.9085,3.9092,3.9147,3.9162,3.9174,3.9177,3.9004,0,0,0,0,0,3.9315,3.9322,3.9277,3.9312,3.9305,3.926,3.926,3.9226,3.9207,3.92,3.9172,3.9156,3.9157,3.9159,3.9157,3.9201,3.9192,3.9225,3.9237,3.9247,3.9253,3.9274,3.9288,3.914,3.9139,3.9139,0,0,3.9365,3.9338,3.9345,3.933,3.9313,3.9321,3.9254,3.9266,3.9272,3.9202,3.9221,3.9201,3.9179,3.9213,3.9226,3.9199,3.9292,3.9255,3.9264,3.9264,3.9282,3.9296,3.9308,3.9144,3.9143,3.9142,0,0,3.9459,3.944,3.9466,3.9451,3.9426,3.9395,3.9402,3.9366,3.935,3.9369,3.9316,3.9323,3.9326,3.9312,3.9306,3.9396,3.9355,3.9397,3.946,3.9482,3.9493,3.9503,3.9534,3.9546,3.9404,3.9404,3.9404,0,3.9523,3.9533,3.9485,3.95,3.9494,3.9431,3.9457,3.9445,3.9422,3.942,3.939,3.9392,3.9373,3.9402,3.9424,3.9422,3.9427,3.94,3.9495,3.9505,3.9514,3.9543,3.9555,3.9409,3.9408,3.9408,3.9407,0,3.9614,3.9622,3.9646,3.9624,3.9622,3.9643,3.9598,3.9602,3.9569,3.9542,3.9562,3.9537,3.9529,3.9534,3.9503,3.9559,3.9543,3.9505,3.9452,3.9534,3.956,3.9571,3.9416,3.9415,3.9413,3.9412,0,0,3.9762,3.9713,3.9723,3.9712,3.9681,3.9686,3.9705,3.9697,3.9701,3.9688,3.9701,3.9706,3.9671,3.9663,3.963,3.9649,3.9721,3.9609,3.9607,3.9629,3.9781,3.9808,3.9822,3.9695,3.9697,3.9698,3.9782,0,3.9848,3.9875,3.9833,3.987,3.9877,3.9818,3.9834,3.9817,3.9792,3.9795,3.9768,3.9772,3.9726,3.9721,3.9737,3.9709,3.975,3.9703,3.9707,3.9707,3.9712,3.9836,3.9865,3.9945,3.9792,3.9794,3.9795,0,3.9952,3.9943,3.9981,3.9947,3.9948,3.9964,3.9952,3.9956,3.9936,3.9917,3.9909,3.987,3.9886,3.9836,3.9857,3.9825,3.9825,3.9811,3.9813,3.9811,3.9755,3.9835,3.9969,3.9981,3.9811,3.981,3.9809,0,4.0054,4.0052,4.0074,4.0067,4.0029,4.0041,4.0026,4.0003,4.0001,3.9992,3.999,3.9983,3.9979,3.9976,3.9935,3.9903,3.9962,3.9908,3.9946,3.9947,3.9959,3.9959,4.0094,3.9962,3.9962,3.9962,3.9961,0,4.0154,4.0179,4.012,4.0133,4.016,4.0112,4.014,4.0119,4.0099,4.0108,4.0057,4.0067,4.0014,4.0018,3.9987,4.0009,4.0008,3.9993,3.9984,3.9996,3.9998,3.9994,3.9987,3.9965,3.9964,3.9963,3.9963,0,4.0272,4.0233,4.0253,4.0216,4.0207,4.0229,4.0196,4.0208,4.018,4.0192,4.0192,4.015,4.0152,4.0112,4.0106,4.0085,4.0121,4.0103,4.0127,4.0121,4.016,4.0157,4.0296,4.0312,4.0172,4.0173,4.0174,0,4.0337,4.0355,4.032,4.0322,4.0309,4.0313,4.031,4.0264,4.0263,4.0242,4.0256,4.0254,4.0249,4.0256,4.0224,4.022,4.0201,4.025,4.0199,4.0211,4.02,4.0199,4.02,4.026,4.0262,4.0263,4.0264,0,4.0457,4.0437,4.0435,4.0427,4.0425,4.0417,4.0405,4.041,4.0359,4.0361,4.0362,4.0359,4.0353,4.0352,4.0341,4.0326,4.0287,4.0281,4.0289,4.0301,4.0314,4.0306,4.0155,4.0277,4.0276,4.0275,4.0274,4.0274,4.055,4.0563,4.054,4.0539,4.0526,4.0516,4.0524,4.0498,4.0498,4.049,4.0463,4.0468,4.0448,4.043,4.0418,4.0422,4.0398,4.041,4.0413,4.0417,4.0423,4.0315,4.0421,4.042,4.042,4.0419,4.0419,0,4.0665,4.0648,4.0648,4.0633,4.0633,4.0597,4.0582,4.0584,4.059,4.0574,4.0571,4.0573,4.0571,4.054,4.0535,4.0544,4.0526,4.0544,4.0542,4.0539,4.0446,4.0439,4.0559,4.0559,4.0559,4.0559,4.0559,4.0559,4.0726,4.0746,4.0723,4.0737,4.0719,4.0724,4.0718,4.0709,4.0696,4.07,4.0698,4.0678,4.0656,4.0649,4.0646,4.0637,4.0637,4.0661,4.0646,4.0559,4.0546,4.0533,4.0526,4.0662,4.0662,4.0738,4.0739,4.074]}]]